LEO404 KBLI-KPAE

Flight info

Callsign LEO404
Flight time N/A
Altitude 2500
Route VFR DCT 88WA DCT KPAE
Aircraft C208/L-VGD/C

Departure

Time 2026-04-22 04:58
Airport Bellingham International Airport (KBLI)

Arrival

Time N/A
Airport Seattle Paine Field International Airport (KPAE)
Time Latitude Longitude Altitude Speed Heading
2026-04-22 04:47 48.79646 -122.53450 176 ft 0 kts 101°
2026-04-22 04:49 48.79646 -122.53451 176 ft 0 kts 101°
2026-04-22 04:50 48.79647 -122.53451 176 ft 0 kts 101°
2026-04-22 04:53 48.79647 -122.53452 176 ft 0 kts 101°
2026-04-22 04:54 48.79646 -122.53448 176 ft 2 kts 115°
2026-04-22 04:54 48.79624 -122.53461 177 ft 9 kts 297°
2026-04-22 04:55 48.79688 -122.53571 176 ft 18 kts 309°
2026-04-22 04:55 48.79695 -122.53607 176 ft 0 kts 261°
2026-04-22 04:56 48.79674 -122.53672 176 ft 15 kts 234°
2026-04-22 04:56 48.79581 -122.53757 177 ft 11 kts 181°
2026-04-22 04:56 48.79480 -122.53756 176 ft 28 kts 178°
2026-04-22 04:57 48.79139 -122.53754 178 ft 69 kts 180°
2026-04-22 04:57 48.78585 -122.53744 236 ft 85 kts 181°
2026-04-22 04:57 48.77952 -122.53732 314 ft 98 kts 180°
2026-04-22 04:57 48.77299 -122.53690 618 ft 92 kts 177°
2026-04-22 04:58 48.76662 -122.53525 808 ft 96 kts 168°
2026-04-22 04:58 48.76021 -122.53273 1088 ft 93 kts 163°
2026-04-22 04:58 48.75400 -122.53063 1325 ft 93 kts 184°
2026-04-22 04:58 48.74826 -122.53590 1439 ft 107 kts 236°
2026-04-22 04:59 48.74613 -122.54667 1727 ft 100 kts 254°
2026-04-22 04:59 48.74450 -122.55628 1939 ft 98 kts 245°
2026-04-22 04:59 48.74164 -122.56636 2038 ft 104 kts 243°
2026-04-22 04:59 48.73873 -122.57641 2183 ft 103 kts 244°
2026-04-22 05:00 48.73580 -122.58601 2338 ft 99 kts 241°
2026-04-22 05:00 48.73254 -122.59538 2442 ft 102 kts 239°
2026-04-22 05:00 48.72867 -122.60519 2395 ft 117 kts 241°
2026-04-22 05:00 48.72610 -122.61718 2425 ft 122 kts 261°
2026-04-22 05:01 48.72594 -122.63005 2450 ft 124 kts 269°
2026-04-22 05:01 48.72622 -122.64306 2512 ft 125 kts 270°
2026-04-22 05:01 48.72697 -122.65619 2612 ft 128 kts 274°
2026-04-22 05:01 48.72800 -122.66963 2685 ft 132 kts 276°
2026-04-22 05:02 48.72960 -122.68394 2618 ft 139 kts 279°
2026-04-22 05:02 48.73126 -122.69807 2680 ft 136 kts 278°
2026-04-22 05:02 48.73258 -122.71242 2671 ft 139 kts 273°
2026-04-22 05:02 48.73341 -122.72694 2708 ft 138 kts 274°
2026-04-22 05:03 48.73413 -122.74164 2656 ft 142 kts 271°
2026-04-22 05:03 48.73433 -122.75702 2529 ft 148 kts 268°
2026-04-22 05:03 48.73412 -122.77198 2572 ft 142 kts 266°
2026-04-22 05:03 48.73360 -122.78741 2450 ft 147 kts 265°
2026-04-22 05:04 48.73282 -122.80280 2402 ft 147 kts 263°
2026-04-22 05:04 48.73171 -122.81773 2386 ft 143 kts 261°
2026-04-22 05:04 48.73010 -122.83249 2359 ft 144 kts 258°
2026-04-22 05:04 48.72783 -122.84781 2171 ft 150 kts 255°
2026-04-22 05:05 48.72552 -122.86161 2473 ft 129 kts 253°
2026-04-22 05:05 48.72276 -122.87480 2452 ft 135 kts 251°
2026-04-22 05:05 48.71955 -122.88825 2440 ft 139 kts 249°
2026-04-22 05:05 48.71584 -122.90195 2402 ft 142 kts 246°
2026-04-22 05:06 48.71163 -122.91541 2414 ft 143 kts 243°
2026-04-22 05:06 48.70679 -122.92839 2524 ft 135 kts 239°
2026-04-22 05:06 48.70164 -122.94066 2389 ft 147 kts 236°
2026-04-22 05:06 48.69604 -122.95341 2384 ft 139 kts 237°
2026-04-22 05:07 48.69045 -122.96567 1972 ft 149 kts 236°
2026-04-22 05:07 48.68454 -122.97897 1592 ft 150 kts 236°
2026-04-22 05:07 48.67818 -122.99081 1387 ft 142 kts 225°
2026-04-22 05:07 48.67079 -123.00091 1083 ft 143 kts 220°
2026-04-22 05:08 48.66307 -123.01064 716 ft 146 kts 218°
2026-04-22 05:08 48.65489 -123.02016 502 ft 149 kts 213°
2026-04-22 05:08 48.64600 -123.02815 413 ft 148 kts 207°
2026-04-22 05:08 48.63647 -123.03328 336 ft 145 kts 194°
2026-04-22 05:09 48.62635 -123.03512 230 ft 147 kts 184°
2026-04-22 05:09 48.61615 -123.03594 129 ft 147 kts 185°
2026-04-22 05:09 48.60567 -123.03696 104 ft 156 kts 185°
2026-04-22 05:09 48.59541 -123.03870 344 ft 147 kts 184°
2026-04-22 05:10 48.58551 -123.03656 636 ft 139 kts 165°
2026-04-22 05:10 48.57650 -123.03104 854 ft 139 kts 157°
2026-04-22 05:10 48.56852 -123.02317 1048 ft 143 kts 127°
2026-04-22 05:10 48.56797 -123.00849 1174 ft 149 kts 59°
2026-04-22 05:11 48.57492 -122.99707 1287 ft 149 kts 47°
2026-04-22 05:11 48.58142 -122.98528 1203 ft 142 kts 51°
2026-04-22 05:11 48.58659 -122.97578 1265 ft 96 kts 47°
2026-04-22 05:11 48.59242 -122.97000 931 ft 99 kts 19°
2026-04-22 05:12 48.59902 -122.96656 515 ft 100 kts 20°
2026-04-22 05:12 48.60504 -122.96274 239 ft 89 kts 22°
2026-04-22 05:12 48.61065 -122.95967 33 ft 82 kts 17°
2026-04-22 05:12 48.61530 -122.95761 10 ft 54 kts 17°
2026-04-22 05:13 48.61741 -122.95668 9 ft 17 kts 15°
2026-04-22 05:13 48.61799 -122.95641 10 ft 4 kts 19°
2026-04-22 05:13 48.61787 -122.95648 10 ft 4 kts 21°
2026-04-22 05:13 48.61767 -122.95661 10 ft 2 kts 25°
2026-04-22 05:14 48.61761 -122.95665 10 ft 0 kts 30°